• In Germany
  • List of Countries
  • For 7 days
  • Water Temperature
  • Satellite Maps
  • Weather Map
  • Weather Widgets
  • user-avatar
    Login

    Hourly Weather Newcastle

    Today, 25 April, Tuesday

    Time Temperature Precipitation Wind Pressure Humidity
    00:00 +16°C° 0 mm 3 mps 762 mmHg 96%
    01:00 +14°C° 0 mm 3 mps 762 mmHg 96%
    02:00 +14°C° 0 mm 3 mps 762 mmHg 94%
    03:00 +14°C° 0 mm 3 mps 762 mmHg 93%
    04:00 +14°C° 0 mm 3 mps 761 mmHg 92%
    05:00 +16°C° 0 mm 3 mps 761 mmHg 88%
    06:00 +16°C° 0 mm 3 mps 761 mmHg 85%
    07:00 +16°C° 0 mm 3 mps 761 mmHg 81%
    08:00 +19°C° 0 mm 3 mps 760 mmHg 71%
    09:00 +22°C° 0 mm 3 mps 760 mmHg 60%
    10:00 +26°C° 0 mm 4 mps 760 mmHg 48%
    11:00 +28°C° 0 mm 4 mps 759 mmHg 45%
    12:00 +29°C° 0 mm 4 mps 758 mmHg 41%
    13:00 +32°C° 0 mm 4 mps 757 mmHg 38%
    14:00 +29°C° 0.1 mm 4 mps 757 mmHg 45%
    15:00 +28°C° 0.1 mm 4 mps 757 mmHg 51%
    16:00 +25°C° 0 mm 4 mps 756 mmHg 63%
    17:00 +23°C° 0.9 mm 4 mps 757 mmHg 73%
    18:00 +21°C° 0.9 mm 4 mps 757 mmHg 84%
    19:00 +20°C° 0.9 mm 4 mps 757 mmHg 95%
    20:00 +19°C° 0.2 mm 4 mps 756 mmHg 95%
    21:00 +19°C° 0.2 mm 5 mps 756 mmHg 95%
    22:00 +19°C° 0.2 mm 5 mps 756 mmHg 95%
    23:00 +17°C° 0 mm 5 mps 756 mmHg 95%

    Tomorrow, 26 April, Wednesday

    Time Temperature Precipitation Wind Pressure Humidity
    00:00 +17°C° 0 mm 5 mps 755 mmHg 95%
    01:00 +17°C° 0 mm 5 mps 755 mmHg 95%
    02:00 +17°C° 0 mm 4 mps 755 mmHg 95%
    03:00 +17°C° 0 mm 4 mps 755 mmHg 95%
    04:00 +17°C° 0 mm 4 mps 755 mmHg 95%
    05:00 +17°C° 0 mm 4 mps 755 mmHg 94%
    06:00 +17°C° 0 mm 4 mps 755 mmHg 93%
    07:00 +17°C° 0 mm 4 mps 755 mmHg 93%
    08:00 +19°C° 0 mm 5 mps 755 mmHg 82%
    09:00 +20°C° 0 mm 5 mps 755 mmHg 72%
    10:00 +22°C° 0 mm 5 mps 755 mmHg 62%
    11:00 +23°C° 0 mm 5 mps 755 mmHg 55%
    12:00 +23°C° 0 mm 5 mps 754 mmHg 48%
    13:00 +25°C° 0 mm 5 mps 753 mmHg 41%
    14:00 +25°C° 0 mm 5 mps 753 mmHg 42%
    15:00 +23°C° 0 mm 5 mps 753 mmHg 43%
    16:00 +22°C° 0 mm 4 mps 753 mmHg 44%
    17:00 +21°C° 0 mm 5 mps 754 mmHg 49%
    18:00 +19°C° 0 mm 5 mps 755 mmHg 54%
    19:00 +16°C° 0 mm 6 mps 756 mmHg 59%
    20:00 +15°C° 0.1 mm 6 mps 756 mmHg 61%
    21:00 +14°C° 0.1 mm 6 mps 757 mmHg 64%
    22:00 +14°C° 0.1 mm 6 mps 758 mmHg 67%
    23:00 +13°C° 0.1 mm 6 mps 758 mmHg 68%

    Day after tomorrow, 27 April, Thursday

    Time Temperature Precipitation Wind Pressure Humidity
    00:00 +12°C° 0.1 mm 5 mps 758 mmHg 70%
    01:00 +10°C° 0.1 mm 5 mps 758 mmHg 71%
    02:00 +10°C° 0.1 mm 5 mps 758 mmHg 72%
    03:00 +9°C° 0.1 mm 5 mps 758 mmHg 73%
    04:00 +9°C° 0.1 mm 5 mps 758 mmHg 75%
    05:00 +9°C° 0 mm 6 mps 759 mmHg 74%
    06:00 +9°C° 0 mm 6 mps 759 mmHg 73%
    07:00 +8°C° 0 mm 6 mps 760 mmHg 72%
    08:00 +10°C° 0 mm 6 mps 760 mmHg 64%
    09:00 +11°C° 0 mm 6 mps 760 mmHg 56%
    10:00 +14°C° 0 mm 6 mps 760 mmHg 47%
    11:00 +15°C° 0 mm 6 mps 760 mmHg 43%
    12:00 +16°C° 0 mm 6 mps 760 mmHg 39%
    13:00 +17°C° 0 mm 6 mps 760 mmHg 36%
    14:00 +17°C° 0 mm 6 mps 759 mmHg 36%
    15:00 +17°C° 0 mm 6 mps 759 mmHg 37%
    16:00 +17°C° 0 mm 6 mps 759 mmHg 38%
    17:00 +16°C° 0 mm 6 mps 760 mmHg 41%
    18:00 +15°C° 0 mm 7 mps 760 mmHg 45%
    19:00 +12°C° 0 mm 7 mps 761 mmHg 48%
    20:00 +12°C° 0.1 mm 7 mps 761 mmHg 50%
    21:00 +12°C° 0.1 mm 8 mps 762 mmHg 52%
    22:00 +11°C° 0.1 mm 8 mps 762 mmHg 54%
    23:00 +11°C° 0.2 mm 9 mps 762 mmHg 55%

    28 April, Friday

    Time Temperature Precipitation Wind Pressure Humidity
    00:00 +11°C° 0.2 mm 9 mps 762 mmHg 57%
    01:00 +11°C° 0.2 mm 9 mps 762 mmHg 58%
    02:00 +10°C° 0.2 mm 9 mps 762 mmHg 60%
    03:00 +10°C° 0.2 mm 8 mps 763 mmHg 61%
    04:00 +10°C° 0.2 mm 8 mps 763 mmHg 63%
    05:00 +10°C° 0.2 mm 8 mps 763 mmHg 64%
    06:00 +9°C° 0.2 mm 7 mps 764 mmHg 65%
    07:00 +9°C° 0.2 mm 7 mps 764 mmHg 66%
    08:00 +11°C° 0.1 mm 7 mps 765 mmHg 63%
    09:00 +14°C° 0.1 mm 7 mps 765 mmHg 60%
    10:00 +15°C° 0.1 mm 6 mps 765 mmHg 57%
    11:00 +17°C° 0.1 mm 6 mps 764 mmHg 55%
    12:00 +19°C° 0.1 mm 6 mps 764 mmHg 52%
    13:00 +20°C° 0.1 mm 6 mps 764 mmHg 50%
    14:00 +20°C° 0.1 mm 6 mps 763 mmHg 50%
    15:00 +20°C° 0.1 mm 5 mps 763 mmHg 51%
    16:00 +20°C° 0.1 mm 5 mps 763 mmHg 51%
    17:00 +16°C° 0.2 mm 5 mps 763 mmHg 61%
    18:00 +14°C° 0.2 mm 5 mps 764 mmHg 71%
    19:00 +12°C° 0.2 mm 4 mps 764 mmHg 81%
    20:00 +12°C° 0.2 mm 4 mps 764 mmHg 82%
    21:00 +12°C° 0.2 mm 4 mps 765 mmHg 83%
    22:00 +12°C° 0.2 mm 3 mps 765 mmHg 84%
    23:00 +12°C° 0.1 mm 3 mps 764 mmHg 83%

    29 April, Saturday

    Time Temperature Precipitation Wind Pressure Humidity
    00:00 +12°C° 0.1 mm 3 mps 764 mmHg 83%
    01:00 +12°C° 0.1 mm 3 mps 764 mmHg 82%
    02:00 +12°C° 0.1 mm 3 mps 764 mmHg 81%
    03:00 +11°C° 0.1 mm 3 mps 763 mmHg 80%
    04:00 +11°C° 0.1 mm 3 mps 763 mmHg 79%
    05:00 +11°C° 0 mm 4 mps 763 mmHg 77%
    06:00 +11°C° 0 mm 4 mps 763 mmHg 74%
    07:00 +11°C° 0 mm 4 mps 764 mmHg 72%
    08:00 +13°C° 0 mm 4 mps 764 mmHg 63%
    09:00 +17°C° 0 mm 3 mps 764 mmHg 54%
    10:00 +20°C° 0 mm 3 mps 763 mmHg 45%
    11:00 +21°C° 0 mm 3 mps 763 mmHg 42%
    12:00 +22°C° 0 mm 3 mps 762 mmHg 38%
    13:00 +25°C° 0 mm 3 mps 761 mmHg 35%
    14:00 +24°C° 0 mm 3 mps 761 mmHg 37%
    15:00 +24°C° 0 mm 3 mps 761 mmHg 39%
    16:00 +24°C° 0 mm 3 mps 761 mmHg 42%
    17:00 +20°C° 0 mm 4 mps 762 mmHg 52%
    18:00 +17°C° 0 mm 4 mps 762 mmHg 61%
    19:00 +14°C° 0 mm 4 mps 763 mmHg 71%
    20:00 +14°C° 0.2 mm 5 mps 763 mmHg 73%
    21:00 +14°C° 0.2 mm 6 mps 764 mmHg 76%
    22:00 +14°C° 0.2 mm 7 mps 764 mmHg 78%
    23:00 +14°C° 0.1 mm 7 mps 764 mmHg 79%

    30 April, Sunday

    Time Temperature Precipitation Wind Pressure Humidity
    00:00 +14°C° 0.1 mm 6 mps 764 mmHg 79%
    01:00 +14°C° 0.1 mm 6 mps 764 mmHg 80%
    02:00 +13°C° 0.1 mm 6 mps 764 mmHg 80%
    03:00 +13°C° 0.1 mm 6 mps 764 mmHg 80%
    04:00 +11°C° 0.1 mm 6 mps 764 mmHg 81%
    05:00 +13°C° 0.1 mm 6 mps 764 mmHg 80%
    06:00 +13°C° 0.1 mm 6 mps 764 mmHg 79%
    07:00 +13°C° 0.1 mm 6 mps 765 mmHg 78%
    08:00 +15°C° 0 mm 6 mps 765 mmHg 75%
    09:00 +16°C° 0 mm 5 mps 765 mmHg 72%
    10:00 +17°C° 0 mm 5 mps 765 mmHg 69%
    11:00 +19°C° 0.1 mm 5 mps 765 mmHg 68%
    12:00 +19°C° 0.1 mm 5 mps 764 mmHg 66%
    13:00 +20°C° 0.1 mm 5 mps 764 mmHg 65%
    14:00 +19°C° 0 mm 5 mps 764 mmHg 67%
    15:00 +19°C° 0 mm 4 mps 764 mmHg 68%
    16:00 +19°C° 0 mm 4 mps 764 mmHg 70%
    17:00 +17°C° 0 mm 3 mps 764 mmHg 75%
    18:00 +16°C° 0 mm 3 mps 764 mmHg 79%
    19:00 +13°C° 0 mm 3 mps 765 mmHg 84%
    20:00 +15°C° 0 mm 2 mps 765 mmHg 84%
    21:00 +15°C° 0 mm 2 mps 765 mmHg 84%
    22:00 +15°C° 0 mm 2 mps 765 mmHg 84%
    23:00 +14°C° 0 mm 2 mps 764 mmHg 86%
    Show more